sim
Sign-in with your pilot id or email,
or register
Callsign
Passwort

Schedule Details

Flight Number: RYR7128 (3)
Departure: Dublin Airport (EIDW) at 12:55
Arrival: Fuerteventura Airport (GCFV) at 17:20
Route: Ryanair Passenger Schedule. Enter filed route here before submitting Pirep.

Weather Information
Getting current METAR information for EIDW 192130Z VRB01KT CAVOK 10/08 Q1030 NOSIG
Getting current METAR information for GCFV 192130Z 35016KT 9999 FEW040 SCT048 18/12 Q1018

Schedule Frequency

Route Map